Montevideo, MN

9:59 AM CDT on April 23, 2017 (GMT -0500)
Montevideo-Chippewa County

Weather History for KMVE - March, 2013

Change the Weather History Date:

Monday, March 18, 2013

  Actual Average Record
Temperature  
Mean Temperature 20 °F -  
Max Temperature 33 °F 41 °F 82 °F (2012)
Min Temperature 8 °F 24 °F -5 °F (1989)
Degree Days  
Heating Degree Days 44    
Moisture  
Dew Point 14 °F    
Average Humidity 82    
Maximum Humidity 100    
Minimum Humidity 68    
Precipitation  
Precipitation 0.04 in - - ()
Sea Level Pressure  
Sea Level Pressure 29.74 in    
Wind  
Wind Speed 20 mph (NW)    
Max Wind Speed 29 mph    
Max Gust Speed 39 mph    
Visibility 8 miles    
Events Snow    
Averages and records for this station are not official NWS values.
T = Trace of Precipitation, MM = Missing Value Source: NWS Daily Summary

Daily Weather History Graph

Daily Weather History Graph

Search for Another Location

Airport or City:

Trip Planner

Search our weather history database for the weather conditions in past years. The results will help you decide how hot, cold, wet, or windy it might be!

Date:

Astronomy

Mar. 18, 2013 Rise Set
Actual Time 7:29 AM CDT 7:33 PM CDT
Civil Twilight 6:59 AM CDT 8:02 PM CDT
Nautical Twilight 6:25 AM CDT 8:36 PM CDT
Astronomical Twilight 5:50 AM CDT 9:11 PM CDT
Moon 11:14 AM CDT (3/18) 1:47 AM CDT (3/18)
Length of Visible Light 13h 02m
Length of Day
12h 03m
Waxing Crescent, 41% of the Moon is Illuminated
Mar 18
Waxing Crescent
Mar 19
First Quarter
Mar 27
Full
Apr 2
Last Quarter
Apr 10
New

Hourly Weather History & Observations

Time (CDT) Temp. Windchill Dew Point Humidity Pressure Visibility Wind Dir Wind Speed Gust Speed Precip Events Conditions
12:13 AM 28.4 °F 14.4 °F 28.4 °F 100% 29.63 in 1.8 mi South 23.0 mph 32.2 mph N/A Snow Light Snow
12:34 AM 30.2 °F 17.8 °F 30.2 °F 100% 29.63 in 2.0 mi South 19.6 mph 26.5 mph 0.01 in Snow Light Snow
12:54 AM 30.2 °F 18.5 °F 30.2 °F 100% 29.63 in 1.2 mi South 17.3 mph 28.8 mph 0.02 in Snow Light Snow
1:14 AM 30.2 °F 17.8 °F 30.2 °F 100% 29.64 in 4.0 mi SSW 19.6 mph 26.5 mph 0.01 in Snow Light Snow
1:33 AM 30.2 °F 18.1 °F 30.2 °F 100% 29.63 in 7.0 mi SSW 18.4 mph 24.2 mph 0.01 in   Overcast
1:54 AM 30.2 °F 18.5 °F 30.2 °F 100% 29.62 in 7.0 mi SSW 17.3 mph 27.6 mph 0.01 in   Overcast
2:14 AM 32.0 °F 21.6 °F 30.2 °F 93% 29.61 in 7.0 mi SSW 15.0 mph 20.7 mph N/A   Overcast
2:33 AM 32.0 °F 22.1 °F 30.2 °F 93% 29.60 in 10.0 mi SSW 13.8 mph 21.9 mph N/A   Overcast
2:54 AM 32.0 °F 20.1 °F 30.2 °F 93% 29.59 in 7.0 mi SSW 19.6 mph 26.5 mph N/A   Drizzle
3:14 AM 32.0 °F 20.8 °F 30.2 °F 93% 29.58 in 3.0 mi SSW 17.3 mph 23.0 mph N/A Snow Light Snow
3:33 AM 33.8 °F 23.9 °F 32.0 °F 93% 29.58 in 3.0 mi SSW 15.0 mph 21.9 mph N/A Snow Light Snow
3:54 AM 33.8 °F 22.8 °F 32.0 °F 93% 29.57 in 5.0 mi SW 18.4 mph 26.5 mph 0.01 in Snow Light Snow
4:14 AM 33.8 °F 22.2 °F 33.8 °F 100% 29.57 in 5.0 mi SW 20.7 mph 25.3 mph N/A Snow Light Snow
4:33 AM 33.8 °F 25.3 °F 33.8 °F 100% 29.58 in 5.0 mi West 11.5 mph 24.2 mph N/A Snow Light Snow
4:54 AM 33.8 °F 22.5 °F 30.2 °F 87% 29.58 in 10.0 mi WNW 19.6 mph 29.9 mph N/A   Overcast
5:14 AM 30.2 °F 17.4 °F 26.6 °F 86% 29.58 in 10.0 mi WNW 20.7 mph 27.6 mph N/A   Overcast
5:33 AM 28.4 °F 15.8 °F 24.8 °F 86% 29.59 in 7.0 mi WNW 18.4 mph 28.8 mph N/A   Overcast
5:54 AM 26.6 °F 14.7 °F 21.2 °F 80% 29.61 in 10.0 mi WNW 15.0 mph 21.9 mph N/A   Overcast
6:14 AM 24.8 °F 10.0 °F 19.4 °F 80% 29.62 in 7.0 mi WNW 21.9 mph 26.5 mph N/A   Overcast
6:33 AM 23.0 °F 8.7 °F 19.4 °F 86% 29.62 in 10.0 mi WNW 18.4 mph 24.2 mph N/A   Overcast
6:54 AM 21.2 °F 5.6 °F 15.8 °F 80% 29.63 in 10.0 mi NW 20.7 mph 29.9 mph N/A   Overcast
7:14 AM 19.4 °F 4.5 °F 15.8 °F 86% 29.64 in 10.0 mi NW 17.3 mph 26.5 mph N/A   Mostly Cloudy
7:33 AM 17.6 °F 0.5 °F 12.2 °F 79% 29.65 in 10.0 mi NW 21.9 mph 29.9 mph N/A   Scattered Clouds
7:54 AM 17.6 °F 0.5 °F 12.2 °F 79% 29.66 in 10.0 mi NW 21.9 mph 32.2 mph N/A   Scattered Clouds
8:14 AM 17.6 °F 0.1 °F 10.4 °F 73% 29.66 in 10.0 mi NW 23.0 mph 27.6 mph N/A   Mostly Cloudy
8:33 AM 17.6 °F 0.5 °F 10.4 °F 73% 29.66 in 10.0 mi NNW 21.9 mph 33.4 mph N/A   Mostly Cloudy
8:54 AM 15.8 °F -1.1 °F 10.4 °F 79% 29.67 in 10.0 mi NW 19.6 mph 29.9 mph N/A   Mostly Cloudy
9:14 AM 15.8 °F -1.1 °F 8.6 °F 73% 29.68 in 10.0 mi NW 19.6 mph 29.9 mph N/A   Scattered Clouds
9:34 AM 15.8 °F -1.5 °F 8.6 °F 73% 29.69 in 10.0 mi NW 20.7 mph 32.2 mph N/A   Mostly Cloudy
9:54 AM 15.8 °F -1.1 °F 8.6 °F 73% 29.70 in 10.0 mi NNW 19.6 mph 33.4 mph N/A   Mostly Cloudy
10:14 AM 15.8 °F -3.7 °F 8.6 °F 73% 29.70 in 10.0 mi NW 27.6 mph 39.1 mph N/A   Scattered Clouds
10:34 AM 14.0 °F -4.3 °F 8.6 °F 79% 29.71 in 10.0 mi NW 21.9 mph 34.5 mph N/A   Scattered Clouds
10:54 AM 14.0 °F -4.3 °F 6.8 °F 73% 29.71 in 10.0 mi NW 21.9 mph 33.4 mph N/A   Mostly Cloudy
11:14 AM 14.0 °F -2.5 °F 6.8 °F 73% 29.73 in 10.0 mi NW 17.3 mph 32.2 mph N/A   Overcast
11:34 AM 15.8 °F -1.9 °F 6.8 °F 68% 29.72 in 10.0 mi NNW 21.9 mph 33.4 mph N/A   Overcast
11:54 AM 14.0 °F -3.0 °F 6.8 °F 73% 29.73 in 10.0 mi NNW 18.4 mph 36.8 mph N/A   Overcast
12:13 PM 14.0 °F -5.8 °F 6.8 °F 73% 29.74 in 10.0 mi NNW 26.5 mph 36.8 mph N/A   Overcast
12:34 PM 15.8 °F -1.5 °F 8.6 °F 73% 29.74 in 10.0 mi NNW 20.7 mph 36.8 mph N/A   Overcast
12:54 PM 14.0 °F -4.3 °F 8.6 °F 79% 29.74 in 7.0 mi NNW 21.9 mph 35.7 mph N/A   Overcast
1:13 PM 15.8 °F -3.4 °F 8.6 °F 73% 29.74 in 10.0 mi NNW 26.5 mph 38.0 mph N/A   Overcast
1:34 PM 15.8 °F -1.5 °F 8.6 °F 73% 29.75 in 7.0 mi NNW 20.7 mph 34.5 mph N/A   Overcast
1:54 PM 15.8 °F -3.1 °F 8.6 °F 73% 29.75 in 10.0 mi NNW 25.3 mph 33.4 mph N/A   Overcast
2:13 PM 15.8 °F -3.1 °F 8.6 °F 73% 29.76 in 4.0 mi NNW 25.3 mph 35.7 mph N/A   Haze
2:34 PM 15.8 °F -4.1 °F 8.6 °F 73% 29.76 in 10.0 mi NNW 28.8 mph 38.0 mph N/A   Overcast
2:54 PM 15.8 °F -3.7 °F 8.6 °F 73% 29.76 in 5.0 mi NNW 27.6 mph 39.1 mph N/A   Haze
3:13 PM 15.8 °F -1.9 °F 10.4 °F 79% 29.77 in 3.0 mi NNW 21.9 mph 35.7 mph N/A   Haze
3:34 PM 14.0 °F -3.9 °F 10.4 °F 86% 29.78 in 4.0 mi NNW 20.7 mph 28.8 mph N/A Snow Light Snow
3:54 PM 15.8 °F -1.9 °F 10.4 °F 79% 29.78 in 3.0 mi NNW 21.9 mph 34.5 mph N/A Snow Light Snow
4:13 PM 15.8 °F -3.1 °F 10.4 °F 79% 29.78 in 7.0 mi NNW 25.3 mph 33.4 mph N/A   Overcast
4:34 PM 15.8 °F -2.3 °F 10.4 °F 79% 29.80 in 4.0 mi NNW 23.0 mph 33.4 mph N/A Snow Light Snow
4:54 PM 15.8 °F -2.7 °F 10.4 °F 79% 29.81 in 1.2 mi NNW 24.2 mph 32.2 mph N/A Snow Light Snow
5:13 PM 15.8 °F -1.5 °F 10.4 °F 79% 29.81 in 2.5 mi NNW 20.7 mph 29.9 mph N/A Snow Light Snow
5:34 PM 15.8 °F 0.9 °F 10.4 °F 79% 29.83 in 5.0 mi NNW 15.0 mph 31.1 mph N/A Snow Light Snow
5:54 PM 15.8 °F 0.3 °F 8.6 °F 73% 29.84 in 10.0 mi North 16.1 mph 32.2 mph N/A   Overcast
6:13 PM 14.0 °F -5.1 °F 8.6 °F 79% 29.84 in 7.0 mi NNW 24.2 mph 32.2 mph N/A   Overcast
6:34 PM 14.0 °F -5.1 °F 8.6 °F 79% 29.85 in 5.0 mi NNW 24.2 mph 32.2 mph N/A Snow Light Snow
6:54 PM 14.0 °F -4.7 °F 8.6 °F 79% 29.86 in 5.0 mi North 23.0 mph 34.5 mph N/A   Haze
7:14 PM 14.0 °F -3.0 °F 8.6 °F 79% 29.87 in 5.0 mi North 18.4 mph 32.2 mph N/A Snow Light Snow
7:34 PM 12.2 °F -6.3 °F 6.8 °F 79% 29.88 in 10.0 mi NNW 20.7 mph 31.1 mph N/A   Overcast
7:54 PM 12.2 °F -5.8 °F 6.8 °F 79% 29.89 in 10.0 mi NNW 19.6 mph 27.6 mph N/A   Mostly Cloudy
8:14 PM 12.2 °F -6.3 °F 6.8 °F 79% 29.90 in 10.0 mi NNW 20.7 mph 26.5 mph N/A   Mostly Cloudy
8:34 PM 12.2 °F -5.3 °F 6.8 °F 79% 29.91 in 10.0 mi NNW 18.4 mph 26.5 mph N/A   Overcast
8:54 PM 10.4 °F -6.6 °F 6.8 °F 85% 29.92 in 10.0 mi NNW 16.1 mph 25.3 mph N/A   Overcast
9:14 PM 10.4 °F -8.6 °F 6.8 °F 85% 29.93 in 10.0 mi NNW 20.7 mph 28.8 mph N/A   Mostly Cloudy
9:34 PM 10.4 °F -8.2 °F 5.0 °F 79% 29.94 in 10.0 mi North 19.6 mph 27.6 mph N/A   Scattered Clouds
9:54 PM 10.4 °F -7.7 °F 5.0 °F 79% 29.94 in 10.0 mi NNW 18.4 mph 27.6 mph N/A   Mostly Cloudy
10:14 PM 10.4 °F -7.7 °F 5.0 °F 79% 29.95 in 10.0 mi NNW 18.4 mph 26.5 mph N/A   Scattered Clouds
10:54 PM 10.4 °F -8.2 °F 3.2 °F 73% 29.96 in 10.0 mi NNW 19.6 mph 27.6 mph N/A   Clear
11:14 PM 10.4 °F -7.7 °F 3.2 °F 73% 29.96 in 10.0 mi NNW 18.4 mph 27.6 mph N/A   Clear
11:34 PM 8.6 °F -10.0 °F 3.2 °F 79% 29.96 in 10.0 mi North 18.4 mph 29.9 mph N/A   Clear
11:54 PM 8.6 °F -8.3 °F 3.2 °F 79% 29.97 in 10.0 mi NNW 15.0 mph 23.0 mph N/A   Clear